Time,TemperatureF,DewpointF,PressureIn,WindDirection,WindDirectionDegrees,WindSpeedMPH,WindSpeedGustMPH,Humidity,HourlyPrecipIn,Conditions,Clouds,dailyrainin,SoftwareType,DateUTC
2013-09-04 00:02:00,66.9,44.3,30.50,SE,143,0.0,0.0,44,0.00,,,0.00,WeatherCatV1.21B27,2013-09-04 07:02:00,
2013-09-04 00:07:00,66.7,44.1,30.50,SE,143,0.0,0.0,44,0.00,,,0.00,WeatherCatV1.21B27,2013-09-04 07:07:00,
2013-09-04 00:12:00,66.6,44.0,30.50,SE,143,0.0,0.0,44,0.00,,,0.00,WeatherCatV1.21B27,2013-09-04 07:12:00,
2013-09-04 00:17:00,66.4,44.4,30.50,SE,143,0.0,0.0,45,0.00,,,0.00,WeatherCatV1.21B27,2013-09-04 07:17:00,
2013-09-04 00:22:00,66.2,44.2,30.50,SE,143,0.0,0.0,45,0.00,,,0.00,WeatherCatV1.21B27,2013-09-04 07:22:00,
2013-09-04 00:27:00,66.2,44.2,30.50,SE,143,0.0,0.0,45,0.00,,,0.00,WeatherCatV1.21B27,2013-09-04 07:27:00,
2013-09-04 00:32:00,66.2,44.8,30.50,SE,143,0.0,0.0,46,0.00,,,0.00,WeatherCatV1.21B27,2013-09-04 07:32:00,
2013-09-04 00:37:00,66.0,44.6,30.50,SE,143,0.0,0.0,46,0.00,,,0.00,WeatherCatV1.21B27,2013-09-04 07:37:00,
2013-09-04 00:42:00,66.0,44.6,30.50,SE,143,0.0,0.0,46,0.00,,,0.00,WeatherCatV1.21B27,2013-09-04 07:42:00,
2013-09-04 00:47:00,66.0,44.6,30.47,SE,143,0.0,0.0,46,0.00,,,0.00,WeatherCatV1.21B27,2013-09-04 07:47:00,
2013-09-04 00:52:00,66.0,44.6,30.47,SE,143,0.0,0.0,46,0.00,,,0.00,WeatherCatV1.21B27,2013-09-04 07:52:00,
2013-09-04 00:57:00,65.8,44.5,30.47,SE,143,0.0,0.0,46,0.00,,,0.00,WeatherCatV1.21B27,2013-09-04 07:57:00,
2013-09-04 01:02:00,65.7,44.3,30.47,SE,143,0.0,0.0,46,0.00,,,0.00,WeatherCatV1.21B27,2013-09-04 08:02:00,
2013-09-04 01:07:00,65.5,44.2,30.47,SE,143,0.0,0.0,46,0.00,,,0.00,WeatherCatV1.21B27,2013-09-04 08:07:00,
2013-09-04 01:12:00,65.5,44.7,30.47,SE,143,0.0,0.0,47,0.00,,,0.00,WeatherCatV1.21B27,2013-09-04 08:12:00,
2013-09-04 01:17:00,65.5,44.2,30.50,SE,143,0.0,0.0,46,0.00,,,0.00,WeatherCatV1.21B27,2013-09-04 08:17:00,
2013-09-04 01:22:00,65.5,44.2,30.50,SE,143,0.0,0.0,46,0.00,,,0.00,WeatherCatV1.21B27,2013-09-04 08:22:00,
2013-09-04 01:27:00,65.5,44.2,30.50,SE,143,0.0,0.0,46,0.00,,,0.00,WeatherCatV1.21B27,2013-09-04 08:27:00,
2013-09-04 01:32:00,65.3,44.0,30.50,SE,143,0.0,0.0,46,0.00,,,0.00,WeatherCatV1.21B27,2013-09-04 08:32:00,
2013-09-04 01:37:00,65.1,44.4,30.50,SE,143,0.0,0.0,47,0.00,,,0.00,WeatherCatV1.21B27,2013-09-04 08:37:00,
2013-09-04 01:42:00,64.9,44.2,30.50,SE,143,0.0,0.0,47,0.00,,,0.00,WeatherCatV1.21B27,2013-09-04 08:42:00,
2013-09-04 01:47:00,64.9,44.2,30.47,SE,143,0.0,0.0,47,0.00,,,0.00,WeatherCatV1.21B27,2013-09-04 08:47:00,
2013-09-04 01:52:00,64.8,44.0,30.47,SE,143,0.0,0.0,47,0.00,,,0.00,WeatherCatV1.21B27,2013-09-04 08:52:00,
2013-09-04 01:57:00,64.8,44.0,30.47,SE,143,0.0,0.0,47,0.00,,,0.00,WeatherCatV1.21B27,2013-09-04 08:57:00,
2013-09-04 02:02:00,64.8,44.6,30.47,WSW,255,0.0,0.0,48,0.00,,,0.00,WeatherCatV1.21B27,2013-09-04 09:02:00,
2013-09-04 02:07:00,64.8,44.6,30.47,WSW,256,0.0,0.0,48,0.00,,,0.00,WeatherCatV1.21B27,2013-09-04 09:07:00,
2013-09-04 02:12:00,64.6,44.4,30.47,WSW,256,0.0,0.0,48,0.00,,,0.00,WeatherCatV1.21B27,2013-09-04 09:12:00,
2013-09-04 02:17:00,64.6,44.4,30.47,WSW,256,0.0,0.0,48,0.00,,,0.00,WeatherCatV1.21B27,2013-09-04 09:17:00,
2013-09-04 02:22:00,64.6,44.4,30.47,WSW,256,0.0,0.0,48,0.00,,,0.00,WeatherCatV1.21B27,2013-09-04 09:22:00,
2013-09-04 02:27:00,64.6,44.4,30.47,WSW,256,0.0,0.0,48,0.00,,,0.00,WeatherCatV1.21B27,2013-09-04 09:27:00,
2013-09-04 02:32:00,64.2,44.1,30.47,WSW,256,0.0,0.0,48,0.00,,,0.00,WeatherCatV1.21B27,2013-09-04 09:32:00,
2013-09-04 02:37:00,64.0,44.5,30.47,WSW,256,0.0,0.0,49,0.00,,,0.00,WeatherCatV1.21B27,2013-09-04 09:37:00,
2013-09-04 02:42:00,63.9,44.3,30.47,WSW,256,0.0,0.0,49,0.00,,,0.00,WeatherCatV1.21B27,2013-09-04 09:42:00,
2013-09-04 02:47:00,63.9,44.8,30.47,WSW,256,0.0,0.0,50,0.00,,,0.00,WeatherCatV1.21B27,2013-09-04 09:47:00,
2013-09-04 02:52:00,63.7,44.7,30.47,WSW,256,0.0,0.0,50,0.00,,,0.00,WeatherCatV1.21B27,2013-09-04 09:52:00,
2013-09-04 02:57:00,63.9,45.4,30.47,WSW,256,0.0,0.0,51,0.00,,,0.00,WeatherCatV1.21B27,2013-09-04 09:57:00,
2013-09-04 03:02:00,63.9,45.4,30.47,WSW,256,0.0,0.0,51,0.00,,,0.00,WeatherCatV1.21B27,2013-09-04 10:02:00,
2013-09-04 03:07:00,64.0,45.0,30.47,WSW,256,0.0,0.0,50,0.00,,,0.00,WeatherCatV1.21B27,2013-09-04 10:07:00,
2013-09-04 03:12:00,64.0,45.0,30.47,WSW,256,0.0,0.0,50,0.00,,,0.00,WeatherCatV1.21B27,2013-09-04 10:12:00,
2013-09-04 03:17:00,64.0,45.0,30.47,WSW,256,0.0,0.0,50,0.00,,,0.00,WeatherCatV1.21B27,2013-09-04 10:17:00,
2013-09-04 03:22:00,64.2,44.7,30.47,WSW,256,0.0,0.0,49,0.00,,,0.00,WeatherCatV1.21B27,2013-09-04 10:22:00,
2013-09-04 03:27:00,64.2,44.7,30.47,WSW,256,0.0,0.0,49,0.00,,,0.00,WeatherCatV1.21B27,2013-09-04 10:27:00,
2013-09-04 03:32:00,64.2,45.2,30.50,West,263,4.0,4.0,50,0.00,,,0.00,WeatherCatV1.21B27,2013-09-04 10:32:00,
2013-09-04 03:37:00,64.2,44.7,30.50,West,263,0.0,0.0,49,0.00,,,0.00,WeatherCatV1.21B27,2013-09-04 10:37:00,
2013-09-04 03:42:00,64.2,44.7,30.50,West,263,0.0,0.0,49,0.00,,,0.00,WeatherCatV1.21B27,2013-09-04 10:42:00,
2013-09-04 03:47:00,64.2,44.7,30.47,West,263,0.0,0.0,49,0.00,,,0.00,WeatherCatV1.21B27,2013-09-04 10:47:00,
2013-09-04 03:52:00,64.0,44.5,30.47,West,263,0.0,0.0,49,0.00,,,0.00,WeatherCatV1.21B27,2013-09-04 10:52:00,
2013-09-04 03:57:00,63.9,44.3,30.47,West,263,0.0,0.0,49,0.00,,,0.00,WeatherCatV1.21B27,2013-09-04 10:57:00,
2013-09-04 04:02:00,63.7,44.7,30.50,West,263,0.0,0.0,50,0.00,,,0.00,WeatherCatV1.21B27,2013-09-04 11:02:00,
2013-09-04 04:07:00,63.7,44.7,30.50,West,263,0.0,0.0,50,0.00,,,0.00,WeatherCatV1.21B27,2013-09-04 11:07:00,
2013-09-04 04:12:00,63.5,44.5,30.50,West,263,0.0,0.0,50,0.00,,,0.00,WeatherCatV1.21B27,2013-09-04 11:12:00,
2013-09-04 04:17:00,63.5,44.5,30.47,WNW,299,0.0,0.0,50,0.00,,,0.00,WeatherCatV1.21B27,2013-09-04 11:17:00,
2013-09-04 04:22:00,63.5,44.5,30.47,WNW,298,0.0,0.0,50,0.00,,,0.00,WeatherCatV1.21B27,2013-09-04 11:22:00,
2013-09-04 04:27:00,63.1,44.2,30.47,WNW,299,0.0,0.0,50,0.00,,,0.00,WeatherCatV1.21B27,2013-09-04 11:27:00,
2013-09-04 04:32:00,63.0,44.0,30.47,WNW,298,0.0,0.0,50,0.00,,,0.00,WeatherCatV1.21B27,2013-09-04 11:32:00,
2013-09-04 04:37:00,62.8,44.4,30.47,WNW,298,0.0,0.0,51,0.00,,,0.00,WeatherCatV1.21B27,2013-09-04 11:37:00,
2013-09-04 04:42:00,62.2,44.4,30.47,South,189,0.0,0.0,52,0.00,,,0.00,WeatherCatV1.21B27,2013-09-04 11:42:00,
2013-09-04 04:47:00,62.1,44.7,30.50,South,178,0.0,3.1,53,0.00,,,0.00,WeatherCatV1.21B27,2013-09-04 11:47:00,
2013-09-04 04:52:00,61.9,45.0,30.50,South,178,0.0,0.0,54,0.00,,,0.00,WeatherCatV1.21B27,2013-09-04 11:52:00,
2013-09-04 04:57:00,62.1,45.7,30.50,South,178,0.0,0.0,55,0.00,,,0.00,WeatherCatV1.21B27,2013-09-04 11:57:00,
2013-09-04 05:02:00,62.1,45.7,30.47,South,178,0.0,0.0,55,0.00,,,0.00,WeatherCatV1.21B27,2013-09-04 12:02:00,
2013-09-04 05:07:00,62.2,45.9,30.47,South,178,0.0,0.0,55,0.00,,,0.00,WeatherCatV1.21B27,2013-09-04 12:07:00,
2013-09-04 05:12:00,62.4,46.0,30.47,South,178,0.0,0.0,55,0.00,,,0.00,WeatherCatV1.21B27,2013-09-04 12:12:00,
2013-09-04 05:17:00,62.2,45.9,30.47,South,178,0.0,0.0,55,0.00,,,0.00,WeatherCatV1.21B27,2013-09-04 12:17:00,
2013-09-04 05:22:00,62.2,45.9,30.47,South,178,0.0,0.0,55,0.00,,,0.00,WeatherCatV1.21B27,2013-09-04 12:22:00,
2013-09-04 05:27:00,62.2,45.9,30.47,South,178,0.0,0.0,55,0.00,,,0.00,WeatherCatV1.21B27,2013-09-04 12:27:00,
2013-09-04 05:32:00,62.1,45.2,30.50,South,178,0.0,0.0,54,0.00,,,0.00,WeatherCatV1.21B27,2013-09-04 12:32:00,
2013-09-04 05:37:00,61.5,45.2,30.50,South,178,0.0,0.0,55,0.00,,,0.00,WeatherCatV1.21B27,2013-09-04 12:37:00,
2013-09-04 05:42:00,61.2,45.3,30.50,South,178,0.0,0.0,56,0.00,,,0.00,WeatherCatV1.21B27,2013-09-04 12:42:00,
2013-09-04 05:47:00,61.0,45.2,30.47,South,178,0.0,0.0,56,0.00,,,0.00,WeatherCatV1.21B27,2013-09-04 12:47:00,
2013-09-04 05:52:00,60.6,45.3,30.47,South,178,0.0,0.0,57,0.00,,,0.00,WeatherCatV1.21B27,2013-09-04 12:52:00,
2013-09-04 05:57:00,60.4,45.1,30.47,South,178,0.0,0.0,57,0.00,,,0.00,WeatherCatV1.21B27,2013-09-04 12:57:00,
2013-09-04 06:02:00,60.4,46.0,30.47,South,178,0.0,0.0,59,0.00,,,0.00,WeatherCatV1.21B27,2013-09-04 13:02:00,
2013-09-04 06:07:00,60.4,46.0,30.47,South,178,0.0,0.0,59,0.00,,,0.00,WeatherCatV1.21B27,2013-09-04 13:07:00,
2013-09-04 06:12:00,60.4,46.0,30.47,South,178,0.0,0.0,59,0.00,,,0.00,WeatherCatV1.21B27,2013-09-04 13:12:00,
2013-09-04 06:17:00,60.3,45.9,30.50,South,178,0.0,0.0,59,0.00,,,0.00,WeatherCatV1.21B27,2013-09-04 13:17:00,
2013-09-04 06:22:00,60.3,45.9,30.50,South,178,0.0,0.0,59,0.00,,,0.00,WeatherCatV1.21B27,2013-09-04 13:22:00,
2013-09-04 06:27:00,60.1,45.7,30.50,South,178,0.0,0.0,59,0.00,,,0.00,WeatherCatV1.21B27,2013-09-04 13:27:00,
2013-09-04 06:32:00,59.7,45.8,30.50,South,178,0.0,0.0,60,0.00,,,0.00,WeatherCatV1.21B27,2013-09-04 13:32:00,
2013-09-04 06:37:00,59.5,45.6,30.50,South,178,0.0,0.0,60,0.00,,,0.00,WeatherCatV1.21B27,2013-09-04 13:37:00,
2013-09-04 06:42:00,59.5,46.5,30.50,South,178,0.0,0.0,62,0.00,,,0.00,WeatherCatV1.21B27,2013-09-04 13:42:00,
2013-09-04 06:47:00,59.7,47.5,30.50,South,178,0.0,0.0,64,0.00,,,0.00,WeatherCatV1.21B27,2013-09-04 13:47:00,
2013-09-04 06:52:00,59.7,47.5,30.50,South,178,0.0,0.0,64,0.00,,,0.00,WeatherCatV1.21B27,2013-09-04 13:52:00,
2013-09-04 06:57:00,60.1,47.9,30.50,South,178,0.0,0.0,64,0.00,,,0.00,WeatherCatV1.21B27,2013-09-04 13:57:00,
2013-09-04 07:02:00,60.6,48.8,30.50,South,178,0.0,0.0,65,0.00,,,0.00,WeatherCatV1.21B27,2013-09-04 14:02:00,
2013-09-04 07:07:00,61.0,48.7,30.50,South,178,0.0,0.0,64,0.00,,,0.00,WeatherCatV1.21B27,2013-09-04 14:07:00,
2013-09-04 07:12:00,61.5,49.2,30.50,South,178,0.0,0.0,64,0.00,,,0.00,WeatherCatV1.21B27,2013-09-04 14:12:00,
2013-09-04 07:17:00,61.7,49.0,30.50,South,178,0.0,0.0,63,0.00,,,0.00,WeatherCatV1.21B27,2013-09-04 14:17:00,
2013-09-04 07:22:00,61.7,48.5,30.50,South,178,0.0,0.0,62,0.00,,,0.00,WeatherCatV1.21B27,2013-09-04 14:22:00,
2013-09-04 07:27:00,61.7,48.5,30.50,South,178,0.0,0.0,62,0.00,,,0.00,WeatherCatV1.21B27,2013-09-04 14:27:00,
2013-09-04 07:32:00,61.9,48.7,30.50,South,178,0.0,0.0,62,0.00,,,0.00,WeatherCatV1.21B27,2013-09-04 14:32:00,
2013-09-04 07:37:00,61.9,48.7,30.50,South,178,0.0,0.0,62,0.00,,,0.00,WeatherCatV1.21B27,2013-09-04 14:37:00,
2013-09-04 07:42:00,61.9,48.3,30.50,South,178,0.0,0.0,61,0.00,,,0.00,WeatherCatV1.21B27,2013-09-04 14:42:00,
2013-09-04 07:47:00,62.1,48.5,30.50,South,178,0.0,0.0,61,0.00,,,0.00,WeatherCatV1.21B27,2013-09-04 14:47:00,
2013-09-04 07:52:00,62.4,48.8,30.50,South,178,0.0,0.0,61,0.00,,,0.00,WeatherCatV1.21B27,2013-09-04 14:52:00,
2013-09-04 07:57:00,62.6,48.5,30.50,South,178,0.0,0.0,60,0.00,,,0.00,WeatherCatV1.21B27,2013-09-04 14:57:00,
2013-09-04 08:02:00,63.1,49.0,30.50,South,178,0.0,0.0,60,0.00,,,0.00,WeatherCatV1.21B27,2013-09-04 15:02:00,
2013-09-04 08:07:00,63.9,49.7,30.50,South,178,0.0,0.0,60,0.00,,,0.00,WeatherCatV1.21B27,2013-09-04 15:07:00,
2013-09-04 08:12:00,64.6,49.0,30.50,South,178,0.0,0.0,57,0.00,,,0.00,WeatherCatV1.21B27,2013-09-04 15:12:00,
2013-09-04 08:17:00,65.3,47.7,30.50,South,178,0.0,0.0,53,0.00,,,0.00,WeatherCatV1.21B27,2013-09-04 15:17:00,
2013-09-04 08:22:00,65.8,46.7,30.50,South,178,0.0,0.0,50,0.00,,,0.00,WeatherCatV1.21B27,2013-09-04 15:22:00,
2013-09-04 08:27:00,66.6,46.2,30.50,South,178,0.0,0.0,48,0.00,,,0.00,WeatherCatV1.21B27,2013-09-04 15:27:00,
2013-09-04 08:32:00,66.9,44.9,30.50,South,178,0.0,0.0,45,0.00,,,0.00,WeatherCatV1.21B27,2013-09-04 15:32:00,
2013-09-04 08:37:00,67.3,44.6,30.50,ENE,75,0.0,0.0,44,0.00,,,0.00,WeatherCatV1.21B27,2013-09-04 15:37:00,
2013-09-04 08:42:00,67.6,44.9,30.50,NE,51,0.0,0.0,44,0.00,,,0.00,WeatherCatV1.21B27,2013-09-04 15:42:00,
2013-09-04 08:47:00,68.0,44.7,30.50,NE,51,0.0,0.0,43,0.00,,,0.00,WeatherCatV1.21B27,2013-09-04 15:47:00,
2013-09-04 08:52:00,68.2,44.2,30.50,NE,49,0.0,0.0,42,0.00,,,0.00,WeatherCatV1.21B27,2013-09-04 15:52:00,
2013-09-04 08:58:00,68.2,44.2,30.50,NNE,28,0.0,0.0,42,0.00,,,0.00,WeatherCatV1.21B27,2013-09-04 15:58:00,
2013-09-04 09:03:00,68.4,44.4,30.53,NNE,28,0.0,0.0,42,0.00,,,0.00,WeatherCatV1.21B27,2013-09-04 16:03:00,
2013-09-04 09:08:00,68.5,44.5,30.53,NE,56,0.0,0.0,42,0.00,,,0.00,WeatherCatV1.21B27,2013-09-04 16:08:00,
2013-09-04 09:13:00,68.7,44.1,30.53,NE,50,0.0,0.0,41,0.00,,,0.00,WeatherCatV1.21B27,2013-09-04 16:13:00,
2013-09-04 09:18:00,69.1,43.7,30.53,NE,50,0.0,0.0,40,0.00,,,0.00,WeatherCatV1.21B27,2013-09-04 16:18:00,
2013-09-04 09:23:00,69.3,43.2,30.53,NE,43,0.0,0.0,39,0.00,,,0.00,WeatherCatV1.21B27,2013-09-04 16:23:00,
2013-09-04 09:28:00,69.6,42.9,30.53,NE,43,0.0,0.0,38,0.00,,,0.00,WeatherCatV1.21B27,2013-09-04 16:28:00,
2013-09-04 09:33:00,70.0,43.2,30.50,NNE,32,0.0,0.0,38,0.00,,,0.00,WeatherCatV1.21B27,2013-09-04 16:33:00,
2013-09-04 09:38:00,70.2,42.7,30.50,NNE,15,0.0,0.0,37,0.00,,,0.00,WeatherCatV1.21B27,2013-09-04 16:38:00,
2013-09-04 09:43:00,70.3,42.8,30.50,NNE,27,0.0,0.0,37,0.00,,,0.00,WeatherCatV1.21B27,2013-09-04 16:43:00,
2013-09-04 09:48:00,70.9,42.6,30.53,ESE,102,0.0,0.0,36,0.00,,,0.00,WeatherCatV1.21B27,2013-09-04 16:48:00,
2013-09-04 09:53:00,71.2,42.2,30.53,ESE,102,0.0,0.0,35,0.00,,,0.00,WeatherCatV1.21B27,2013-09-04 16:53:00,
2013-09-04 09:58:00,72.0,42.8,30.53,NE,43,0.0,0.0,35,0.00,,,0.00,WeatherCatV1.21B27,2013-09-04 16:58:00,
2013-09-04 10:03:00,72.5,42.5,30.53,NNE,30,0.0,0.0,34,0.00,,,0.00,WeatherCatV1.21B27,2013-09-04 17:03:00,
2013-09-04 10:08:00,73.2,42.4,30.53,NNE,16,3.6,3.6,33,0.00,,,0.00,WeatherCatV1.21B27,2013-09-04 17:08:00,
2013-09-04 10:13:00,73.8,42.8,30.53,East,93,0.0,2.2,33,0.00,,,0.00,WeatherCatV1.21B27,2013-09-04 17:13:00,
2013-09-04 10:18:00,74.5,43.5,30.53,NNE,23,0.0,0.0,33,0.00,,,0.00,WeatherCatV1.21B27,2013-09-04 17:18:00,
2013-09-04 10:23:00,75.4,43.5,30.53,NE,37,0.0,0.0,32,0.00,,,0.00,WeatherCatV1.21B27,2013-09-04 17:23:00,
2013-09-04 10:28:00,75.9,43.1,30.53,NE,37,0.0,0.0,31,0.00,,,0.00,WeatherCatV1.21B27,2013-09-04 17:28:00,
2013-09-04 10:33:00,76.1,43.2,30.53,East,97,0.0,0.0,31,0.00,,,0.00,WeatherCatV1.21B27,2013-09-04 17:33:00,
2013-09-04 10:38:00,76.3,43.4,30.53,NE,40,0.0,2.7,31,0.00,,,0.00,WeatherCatV1.21B27,2013-09-04 17:38:00,
2013-09-04 10:43:00,76.6,44.5,30.53,NW,311,0.0,0.0,32,0.00,,,0.00,WeatherCatV1.21B27,2013-09-04 17:43:00,
2013-09-04 10:48:00,77.5,43.6,30.53,West,260,0.0,0.0,30,0.00,,,0.00,WeatherCatV1.21B27,2013-09-04 17:48:00,
2013-09-04 11:06:00,78.4,43.5,30.53,WNW,291,0.0,0.0,29,0.00,,,0.00,WeatherCatV1.21B27,2013-09-04 18:06:00,
2013-09-04 11:11:00,78.4,43.5,30.53,WNW,299,0.0,0.0,29,0.00,,,0.00,WeatherCatV1.21B27,2013-09-04 18:11:00,
2013-09-04 11:16:00,79.2,42.3,30.53,NE,40,0.0,4.9,27,0.00,,,0.00,WeatherCatV1.21B27,2013-09-04 18:16:00,
2013-09-04 11:21:00,79.2,41.3,30.53,NNE,21,0.0,2.7,26,0.00,,,0.00,WeatherCatV1.21B27,2013-09-04 18:21:00,
2013-09-04 11:26:00,79.2,41.3,30.53,NNE,16,3.6,3.6,26,0.00,,,0.00,WeatherCatV1.21B27,2013-09-04 18:26:00,
2013-09-04 11:31:00,79.5,42.6,30.53,South,179,0.0,3.6,27,0.00,,,0.00,WeatherCatV1.21B27,2013-09-04 18:31:00,
2013-09-04 11:36:00,79.7,42.7,30.53,NE,50,0.0,0.0,27,0.00,,,0.00,WeatherCatV1.21B27,2013-09-04 18:36:00,
2013-09-04 11:41:00,80.1,41.0,30.53,East,82,0.0,0.0,25,0.00,,,0.00,WeatherCatV1.21B27,2013-09-04 18:41:00,
2013-09-04 11:46:00,80.2,41.2,30.53,SSE,148,0.0,0.0,25,0.00,,,0.00,WeatherCatV1.21B27,2013-09-04 18:46:00,
2013-09-04 11:51:00,80.6,40.5,30.53,North,2,0.0,0.0,24,0.00,,,0.00,WeatherCatV1.21B27,2013-09-04 18:51:00,
2013-09-04 11:56:00,80.8,40.6,30.53,SW,235,2.2,3.6,24,0.00,,,0.00,WeatherCatV1.21B27,2013-09-04 18:56:00,
2013-09-04 12:01:00,80.8,39.5,30.53,ESE,116,0.0,4.0,23,0.00,,,0.00,WeatherCatV1.21B27,2013-09-04 19:01:00,
2013-09-04 12:06:00,81.1,39.8,30.53,SE,127,3.1,3.1,23,0.00,,,0.00,WeatherCatV1.21B27,2013-09-04 19:06:00,
2013-09-04 12:11:00,81.5,40.1,30.53,West,260,0.0,0.0,23,0.00,,,0.00,WeatherCatV1.21B27,2013-09-04 19:11:00,
2013-09-04 12:16:00,81.9,40.4,30.53,WNW,302,2.7,4.0,23,0.00,,,0.00,WeatherCatV1.21B27,2013-09-04 19:16:00,
2013-09-04 12:21:00,82.2,39.6,30.53,ESE,122,2.7,3.1,22,0.00,,,0.00,WeatherCatV1.21B27,2013-09-04 19:21:00,
2013-09-04 12:26:00,82.2,38.4,30.53,West,263,0.0,3.1,21,0.00,,,0.00,WeatherCatV1.21B27,2013-09-04 19:26:00,
2013-09-04 12:32:00,82.2,39.6,30.53,West,278,0.0,2.7,22,0.00,,,0.00,WeatherCatV1.21B27,2013-09-04 19:32:00,
2013-09-04 12:37:00,82.0,38.2,30.53,ESE,119,0.0,4.9,21,0.00,,,0.00,WeatherCatV1.21B27,2013-09-04 19:37:00,
2013-09-04 12:42:00,83.1,39.1,30.53,South,178,0.0,3.1,21,0.00,,,0.00,WeatherCatV1.21B27,2013-09-04 19:42:00,
2013-09-04 12:47:00,83.1,39.1,30.53,East,100,0.0,0.0,21,0.00,,,0.00,WeatherCatV1.21B27,2013-09-04 19:47:00,
2013-09-04 12:52:00,83.1,37.9,30.53,East,90,0.0,0.0,20,0.00,,,0.00,WeatherCatV1.21B27,2013-09-04 19:52:00,
2013-09-04 12:57:00,83.7,38.3,30.53,NE,52,2.7,2.7,20,0.00,,,0.00,WeatherCatV1.21B27,2013-09-04 19:57:00,
2013-09-04 13:02:00,84.2,37.5,30.53,NE,38,2.7,3.1,19,0.00,,,0.00,WeatherCatV1.21B27,2013-09-04 20:02:00,
2013-09-04 13:07:00,84.2,37.5,30.53,SE,138,0.0,0.0,19,0.00,,,0.00,WeatherCatV1.21B27,2013-09-04 20:07:00,
2013-09-04 13:12:00,84.9,38.0,30.53,SE,127,0.0,2.7,19,0.00,,,0.00,WeatherCatV1.21B27,2013-09-04 20:12:00,
2013-09-04 13:17:00,85.1,38.2,30.50,East,82,0.0,0.0,19,0.00,,,0.00,WeatherCatV1.21B27,2013-09-04 20:17:00,
2013-09-04 13:22:00,86.0,38.9,30.50,SE,135,0.0,3.6,19,0.00,,,0.00,WeatherCatV1.21B27,2013-09-04 20:22:00,
2013-09-04 13:27:00,86.5,39.3,30.50,East,84,0.0,0.0,19,0.00,,,0.00,WeatherCatV1.21B27,2013-09-04 20:27:00,
2013-09-04 13:32:00,86.4,37.8,30.50,East,84,0.0,0.0,18,0.00,,,0.00,WeatherCatV1.21B27,2013-09-04 20:32:00,
2013-09-04 13:37:00,86.4,37.8,30.50,NNE,33,0.0,2.2,18,0.00,,,0.00,WeatherCatV1.21B27,2013-09-04 20:37:00,
2013-09-04 13:42:00,86.5,38.0,30.50,NE,37,0.0,2.2,18,0.00,,,0.00,WeatherCatV1.21B27,2013-09-04 20:42:00,
2013-09-04 13:47:00,87.1,38.4,30.50,NE,51,0.0,3.6,18,0.00,,,0.00,WeatherCatV1.21B27,2013-09-04 20:47:00,
2013-09-04 13:52:00,87.6,38.8,30.50,NNE,26,0.0,0.0,18,0.00,,,0.00,WeatherCatV1.21B27,2013-09-04 20:52:00,
2013-09-04 13:57:00,88.0,34.5,30.50,NNE,25,5.4,5.4,15,0.00,,,0.00,WeatherCatV1.21B27,2013-09-04 20:57:00,
2013-09-04 14:02:00,88.3,34.8,30.50,NE,41,0.0,3.6,15,0.00,,,0.00,WeatherCatV1.21B27,2013-09-04 21:02:00,
2013-09-04 14:07:00,88.2,34.7,30.50,NNE,26,0.0,3.6,15,0.00,,,0.00,WeatherCatV1.21B27,2013-09-04 21:07:00,
2013-09-04 14:12:00,88.5,34.9,30.50,NNE,26,0.0,0.0,15,0.00,,,0.00,WeatherCatV1.21B27,2013-09-04 21:12:00,
2013-09-04 14:17:00,88.7,35.1,30.50,WNW,286,0.0,0.0,15,0.00,,,0.00,WeatherCatV1.21B27,2013-09-04 21:17:00,
2013-09-04 14:22:00,88.7,31.5,30.50,NNE,15,0.0,0.0,13,0.00,,,0.00,WeatherCatV1.21B27,2013-09-04 21:22:00,
2013-09-04 14:27:00,88.7,31.5,30.50,NNE,15,0.0,0.0,13,0.00,,,0.00,WeatherCatV1.21B27,2013-09-04 21:27:00,
2013-09-04 14:32:00,88.5,31.4,30.50,NE,43,0.0,0.0,13,0.00,,,0.00,WeatherCatV1.21B27,2013-09-04 21:32:00,
2013-09-04 14:37:00,88.2,31.1,30.50,NE,47,0.0,4.0,13,0.00,,,0.00,WeatherCatV1.21B27,2013-09-04 21:37:00,
2013-09-04 14:42:00,88.3,31.2,30.50,NE,47,0.0,0.0,13,0.00,,,0.00,WeatherCatV1.21B27,2013-09-04 21:42:00,
2013-09-04 14:47:00,88.2,31.1,30.50,NE,46,0.0,2.7,13,0.00,,,0.00,WeatherCatV1.21B27,2013-09-04 21:47:00,
2013-09-04 14:52:00,88.3,31.2,30.50,NNE,28,0.0,4.9,13,0.00,,,0.00,WeatherCatV1.21B27,2013-09-04 21:52:00,
2013-09-04 14:57:00,87.3,30.4,30.50,NNE,28,0.0,0.0,13,0.00,,,0.00,WeatherCatV1.21B27,2013-09-04 21:57:00,
2013-09-04 15:02:00,86.9,30.1,30.50,NNE,28,0.0,0.0,13,0.00,,,0.00,WeatherCatV1.21B27,2013-09-04 22:02:00,
2013-09-04 15:07:00,85.8,37.4,30.50,NNE,28,0.0,0.0,18,0.00,,,0.00,WeatherCatV1.21B27,2013-09-04 22:07:00,
2013-09-04 15:12:00,84.7,36.5,30.50,NNE,28,0.0,0.0,18,0.00,,,0.00,WeatherCatV1.21B27,2013-09-04 22:12:00,
2013-09-04 15:17:00,84.0,37.3,30.50,NNE,28,0.0,0.0,19,0.00,,,0.00,WeatherCatV1.21B27,2013-09-04 22:17:00,
2013-09-04 15:22:00,83.7,37.0,30.50,NNE,28,0.0,0.0,19,0.00,,,0.00,WeatherCatV1.21B27,2013-09-04 22:22:00,
2013-09-04 15:27:00,83.1,36.6,30.50,NNE,28,0.0,0.0,19,0.00,,,0.00,WeatherCatV1.21B27,2013-09-04 22:27:00,
2013-09-04 15:32:00,82.8,36.3,30.50,NNE,28,0.0,0.0,19,0.00,,,0.00,WeatherCatV1.21B27,2013-09-04 22:32:00,
2013-09-04 15:37:00,82.4,37.3,30.50,NNE,28,0.0,0.0,20,0.00,,,0.00,WeatherCatV1.21B27,2013-09-04 22:37:00,
2013-09-04 15:42:00,82.2,37.1,30.50,NNE,28,0.0,0.0,20,0.00,,,0.00,WeatherCatV1.21B27,2013-09-04 22:42:00,
2013-09-04 15:47:00,82.0,37.0,30.50,NNE,28,0.0,0.0,20,0.00,,,0.00,WeatherCatV1.21B27,2013-09-04 22:47:00,
2013-09-04 15:52:00,81.9,36.8,30.50,NNE,28,0.0,0.0,20,0.00,,,0.00,WeatherCatV1.21B27,2013-09-04 22:52:00,
2013-09-04 15:57:00,81.3,37.6,30.50,NNE,28,0.0,0.0,21,0.00,,,0.00,WeatherCatV1.21B27,2013-09-04 22:57:00,
2013-09-04 16:02:00,81.1,37.5,30.50,NNE,28,0.0,0.0,21,0.00,,,0.00,WeatherCatV1.21B27,2013-09-04 23:02:00,
2013-09-04 16:07:00,81.0,37.3,30.50,NNE,28,0.0,0.0,21,0.00,,,0.00,WeatherCatV1.21B27,2013-09-04 23:07:00,
2013-09-04 16:12:00,80.8,37.2,30.50,NNE,28,0.0,0.0,21,0.00,,,0.00,WeatherCatV1.21B27,2013-09-04 23:12:00,
2013-09-04 16:17:00,80.4,38.1,30.50,NNE,28,0.0,0.0,22,0.00,,,0.00,WeatherCatV1.21B27,2013-09-04 23:17:00,
2013-09-04 16:22:00,80.2,37.9,30.50,NNE,28,0.0,0.0,22,0.00,,,0.00,WeatherCatV1.21B27,2013-09-04 23:22:00,
2013-09-04 16:27:00,81.0,38.5,30.50,NNE,28,0.0,0.0,22,0.00,,,0.00,WeatherCatV1.21B27,2013-09-04 23:27:00,
2013-09-04 16:32:00,82.2,39.6,30.47,NNE,28,0.0,0.0,22,0.00,,,0.00,WeatherCatV1.21B27,2013-09-04 23:32:00,
2013-09-04 16:37:00,83.7,39.6,30.47,NNE,28,0.0,0.0,21,0.00,,,0.00,WeatherCatV1.21B27,2013-09-04 23:37:00,
2013-09-04 16:42:00,84.7,40.5,30.47,NNE,28,0.0,0.0,21,0.00,,,0.00,WeatherCatV1.21B27,2013-09-04 23:42:00,
2013-09-04 16:47:00,84.9,39.3,30.47,NNE,28,0.0,0.0,20,0.00,,,0.00,WeatherCatV1.21B27,2013-09-04 23:47:00,
2013-09-04 16:52:00,85.1,39.5,30.47,South,189,0.0,0.0,20,0.00,,,0.00,WeatherCatV1.21B27,2013-09-04 23:52:00,
2013-09-04 16:57:00,85.1,39.5,30.47,South,189,0.0,0.0,20,0.00,,,0.00,WeatherCatV1.21B27,2013-09-04 23:57:00,
2013-09-04 17:02:00,84.9,38.0,30.47,South,189,0.0,0.0,19,0.00,,,0.00,WeatherCatV1.21B27,2013-09-05 00:02:00,
2013-09-04 17:07:00,84.7,37.9,30.47,South,189,0.0,0.0,19,0.00,,,0.00,WeatherCatV1.21B27,2013-09-05 00:07:00,
2013-09-04 17:12:00,84.6,37.7,30.47,East,92,0.0,0.0,19,0.00,,,0.00,WeatherCatV1.21B27,2013-09-05 00:12:00,
2013-09-04 17:17:00,84.2,37.5,30.47,East,92,0.0,0.0,19,0.00,,,0.00,WeatherCatV1.21B27,2013-09-05 00:17:00,
2013-09-04 17:22:00,84.0,37.3,30.47,East,92,0.0,0.0,19,0.00,,,0.00,WeatherCatV1.21B27,2013-09-05 00:22:00,
2013-09-04 17:27:00,83.8,37.2,30.47,East,83,0.0,0.0,19,0.00,,,0.00,WeatherCatV1.21B27,2013-09-05 00:27:00,
2013-09-04 17:32:00,83.7,37.0,30.47,East,83,0.0,0.0,19,0.00,,,0.00,WeatherCatV1.21B27,2013-09-05 00:32:00,
2013-09-04 17:37:00,83.7,37.0,30.47,East,83,0.0,0.0,19,0.00,,,0.00,WeatherCatV1.21B27,2013-09-05 00:37:00,
2013-09-04 17:42:00,83.3,36.7,30.47,East,83,0.0,0.0,19,0.00,,,0.00,WeatherCatV1.21B27,2013-09-05 00:42:00,
2013-09-04 17:47:00,82.8,37.6,30.44,East,83,0.0,0.0,20,0.00,,,0.00,WeatherCatV1.21B27,2013-09-05 00:47:00,
2013-09-04 17:52:00,82.2,37.1,30.44,East,83,0.0,0.0,20,0.00,,,0.00,WeatherCatV1.21B27,2013-09-05 00:52:00,
2013-09-04 17:57:00,81.9,38.1,30.44,East,83,0.0,0.0,21,0.00,,,0.00,WeatherCatV1.21B27,2013-09-05 00:57:00,
2013-09-04 18:02:00,81.7,37.9,30.47,East,83,0.0,0.0,21,0.00,,,0.00,WeatherCatV1.21B27,2013-09-05 01:02:00,
2013-09-04 18:07:00,81.5,37.8,30.47,East,83,0.0,0.0,21,0.00,,,0.00,WeatherCatV1.21B27,2013-09-05 01:07:00,
2013-09-04 18:12:00,81.0,37.3,30.47,East,83,0.0,0.0,21,0.00,,,0.00,WeatherCatV1.21B27,2013-09-05 01:12:00,
2013-09-04 18:17:00,80.6,38.2,30.47,East,83,0.0,0.0,22,0.00,,,0.00,WeatherCatV1.21B27,2013-09-05 01:17:00,
2013-09-04 18:22:00,79.9,37.6,30.47,East,83,0.0,0.0,22,0.00,,,0.00,WeatherCatV1.21B27,2013-09-05 01:22:00,
2013-09-04 18:27:00,79.3,37.2,30.47,East,83,0.0,0.0,22,0.00,,,0.00,WeatherCatV1.21B27,2013-09-05 01:27:00,
2013-09-04 18:32:00,79.2,38.2,30.47,East,83,0.0,0.0,23,0.00,,,0.00,WeatherCatV1.21B27,2013-09-05 01:32:00,
2013-09-04 18:37:00,79.0,38.0,30.47,East,83,0.0,0.0,23,0.00,,,0.00,WeatherCatV1.21B27,2013-09-05 01:37:00,
2013-09-04 18:42:00,78.6,37.7,30.47,East,83,0.0,0.0,23,0.00,,,0.00,WeatherCatV1.21B27,2013-09-05 01:42:00,
2013-09-04 18:47:00,78.4,38.6,30.44,East,83,0.0,0.0,24,0.00,,,0.00,WeatherCatV1.21B27,2013-09-05 01:47:00,
2013-09-04 18:52:00,78.3,38.5,30.44,East,83,0.0,0.0,24,0.00,,,0.00,WeatherCatV1.21B27,2013-09-05 01:52:00,
2013-09-04 18:57:00,78.1,38.3,30.44,East,83,0.0,0.0,24,0.00,,,0.00,WeatherCatV1.21B27,2013-09-05 01:57:00,
2013-09-04 19:02:00,77.7,38.0,30.44,East,83,0.0,0.0,24,0.00,,,0.00,WeatherCatV1.21B27,2013-09-05 02:02:00,
2013-09-04 19:07:00,77.4,37.7,30.44,East,83,0.0,0.0,24,0.00,,,0.00,WeatherCatV1.21B27,2013-09-05 02:07:00,
2013-09-04 19:12:00,77.2,37.6,30.44,East,83,0.0,0.0,24,0.00,,,0.00,WeatherCatV1.21B27,2013-09-05 02:12:00,
2013-09-04 19:17:00,77.0,38.5,30.44,East,83,0.0,0.0,25,0.00,,,0.00,WeatherCatV1.21B27,2013-09-05 02:17:00,
2013-09-04 19:22:00,77.2,37.6,30.44,East,83,0.0,0.0,24,0.00,,,0.00,WeatherCatV1.21B27,2013-09-05 02:22:00,
2013-09-04 19:27:00,77.2,38.6,30.44,East,83,0.0,0.0,25,0.00,,,0.00,WeatherCatV1.21B27,2013-09-05 02:27:00,
2013-09-04 19:32:00,76.8,38.3,30.47,East,83,0.0,0.0,25,0.00,,,0.00,WeatherCatV1.21B27,2013-09-05 02:32:00,
2013-09-04 19:37:00,76.6,38.2,30.47,East,83,0.0,0.0,25,0.00,,,0.00,WeatherCatV1.21B27,2013-09-05 02:37:00,
2013-09-04 19:42:00,76.5,38.0,30.47,East,83,0.0,0.0,25,0.00,,,0.00,WeatherCatV1.21B27,2013-09-05 02:42:00,
2013-09-04 19:47:00,76.1,38.7,30.47,East,83,0.0,0.0,26,0.00,,,0.00,WeatherCatV1.21B27,2013-09-05 02:47:00,
2013-09-04 19:52:00,75.7,39.4,30.47,East,83,0.0,0.0,27,0.00,,,0.00,WeatherCatV1.21B27,2013-09-05 02:52:00,
2013-09-04 19:57:00,75.4,38.1,30.47,East,83,0.0,0.0,26,0.00,,,0.00,WeatherCatV1.21B27,2013-09-05 02:57:00,
2013-09-04 20:02:00,75.4,39.1,30.44,East,83,0.0,0.0,27,0.00,,,0.00,WeatherCatV1.21B27,2013-09-05 03:02:00,
2013-09-04 20:07:00,75.0,39.7,30.44,East,83,0.0,0.0,28,0.00,,,0.00,WeatherCatV1.21B27,2013-09-05 03:07:00,
2013-09-04 20:12:00,74.5,39.2,30.44,East,83,0.0,0.0,28,0.00,,,0.00,WeatherCatV1.21B27,2013-09-05 03:12:00,
2013-09-04 20:17:00,74.3,40.0,30.44,East,83,0.0,0.0,29,0.00,,,0.00,WeatherCatV1.21B27,2013-09-05 03:17:00,
2013-09-04 20:22:00,74.3,40.0,30.44,East,83,0.0,0.0,29,0.00,,,0.00,WeatherCatV1.21B27,2013-09-05 03:22:00,
2013-09-04 20:27:00,74.3,40.8,30.44,East,83,0.0,0.0,30,0.00,,,0.00,WeatherCatV1.21B27,2013-09-05 03:27:00,
2013-09-04 20:32:00,74.1,40.7,30.47,East,83,0.0,0.0,30,0.00,,,0.00,WeatherCatV1.21B27,2013-09-05 03:32:00,
2013-09-04 20:37:00,73.9,41.4,30.47,East,83,0.0,0.0,31,0.00,,,0.00,WeatherCatV1.21B27,2013-09-05 03:37:00,
2013-09-04 20:42:00,73.6,41.1,30.47,East,83,0.0,0.0,31,0.00,,,0.00,WeatherCatV1.21B27,2013-09-05 03:42:00,
2013-09-04 20:47:00,73.4,40.9,30.47,East,83,0.0,0.0,31,0.00,,,0.00,WeatherCatV1.21B27,2013-09-05 03:47:00,
2013-09-04 20:52:00,73.2,40.8,30.47,East,83,0.0,0.0,31,0.00,,,0.00,WeatherCatV1.21B27,2013-09-05 03:52:00,
2013-09-04 20:57:00,73.4,40.9,30.47,East,83,0.0,0.0,31,0.00,,,0.00,WeatherCatV1.21B27,2013-09-05 03:57:00,
2013-09-04 21:01:00,73.4,40.9,30.47,East,83,0.0,0.0,31,0.00,,,0.00,WeatherCatV1.21B27,2013-09-05 04:01:00,
2013-09-04 21:06:00,73.8,41.2,30.47,East,83,0.0,0.0,31,0.00,,,0.00,WeatherCatV1.21B27,2013-09-05 04:06:00,
2013-09-04 21:11:00,73.9,41.4,30.47,East,83,0.0,0.0,31,0.00,,,0.00,WeatherCatV1.21B27,2013-09-05 04:11:00,
2013-09-04 21:16:00,73.9,41.4,30.47,East,83,0.0,0.0,31,0.00,,,0.00,WeatherCatV1.21B27,2013-09-05 04:16:00,
2013-09-04 21:21:00,74.3,41.7,30.47,East,83,0.0,0.0,31,0.00,,,0.00,WeatherCatV1.21B27,2013-09-05 04:21:00,
2013-09-04 21:26:00,74.3,41.7,30.47,East,83,0.0,0.0,31,0.00,,,0.00,WeatherCatV1.21B27,2013-09-05 04:26:00,
2013-09-04 21:31:00,74.3,41.7,30.47,East,83,0.0,0.0,31,0.00,,,0.00,WeatherCatV1.21B27,2013-09-05 04:31:00,
2013-09-04 21:36:00,74.3,41.7,30.47,East,83,0.0,0.0,31,0.00,,,0.00,WeatherCatV1.21B27,2013-09-05 04:36:00,
2013-09-04 21:41:00,74.3,41.7,30.47,East,83,0.0,0.0,31,0.00,,,0.00,WeatherCatV1.21B27,2013-09-05 04:41:00,
2013-09-04 21:46:00,74.1,42.4,30.47,East,83,0.0,0.0,32,0.00,,,0.00,WeatherCatV1.21B27,2013-09-05 04:46:00,
2013-09-04 21:51:00,73.9,42.2,30.47,East,83,0.0,0.0,32,0.00,,,0.00,WeatherCatV1.21B27,2013-09-05 04:51:00,
2013-09-04 21:56:00,74.1,42.4,30.47,East,83,0.0,0.0,32,0.00,,,0.00,WeatherCatV1.21B27,2013-09-05 04:56:00,
2013-09-04 22:01:00,74.1,42.4,30.47,East,83,0.0,0.0,32,0.00,,,0.00,WeatherCatV1.21B27,2013-09-05 05:01:00,
2013-09-04 22:06:00,73.9,42.2,30.47,West,277,0.0,0.0,32,0.00,,,0.00,WeatherCatV1.21B27,2013-09-05 05:06:00,
2013-09-04 22:11:00,73.6,41.9,30.47,SW,228,0.0,2.7,32,0.00,,,0.00,WeatherCatV1.21B27,2013-09-05 05:11:00,
2013-09-04 22:16:00,73.2,42.4,30.47,SSW,192,4.0,6.3,33,0.00,,,0.00,WeatherCatV1.21B27,2013-09-05 05:16:00,
2013-09-04 22:21:00,72.5,44.0,30.50,SSW,200,3.1,5.4,36,0.00,,,0.00,WeatherCatV1.21B27,2013-09-05 05:21:00,
2013-09-04 22:26:00,69.6,49.6,30.50,South,173,7.6,17.0,49,0.00,,,0.00,WeatherCatV1.21B27,2013-09-05 05:26:00,
2013-09-04 22:31:00,67.5,51.2,30.50,South,172,5.4,11.9,56,0.00,,,0.04,WeatherCatV1.21B27,2013-09-05 05:31:00,
2013-09-04 22:36:00,66.4,54.2,30.56,SE,140,3.6,3.6,65,0.00,,,0.04,WeatherCatV1.21B27,2013-09-05 05:36:00,
2013-09-04 22:41:00,65.7,55.6,30.56,SSW,207,2.2,6.3,70,0.00,,,0.04,WeatherCatV1.21B27,2013-09-05 05:41:00,
2013-09-04 22:46:00,65.5,55.8,30.56,ESE,117,0.0,0.0,71,0.00,,,0.04,WeatherCatV1.21B27,2013-09-05 05:46:00,
2013-09-04 22:51:00,65.3,56.8,30.56,ESE,119,0.0,0.0,74,0.00,,,0.04,WeatherCatV1.21B27,2013-09-05 05:51:00,
2013-09-04 22:56:00,65.5,58.1,30.56,NNE,29,0.0,0.0,77,0.08,,,0.04,WeatherCatV1.21B27,2013-09-05 05:56:00,
2013-09-04 23:01:00,65.1,58.8,30.56,NNW,330,3.6,8.3,80,0.08,,,0.08,WeatherCatV1.21B27,2013-09-05 06:01:00,
2013-09-04 23:06:00,64.9,58.6,30.47,WSW,248,3.6,3.6,80,0.08,,,0.08,WeatherCatV1.21B27,2013-09-05 06:06:00,
2013-09-04 23:11:00,65.1,59.1,30.47,WSW,251,5.4,5.8,81,0.08,,,0.08,WeatherCatV1.21B27,2013-09-05 06:11:00,
2013-09-04 23:16:00,64.8,58.8,30.47,SSW,205,0.0,0.0,81,0.08,,,0.08,WeatherCatV1.21B27,2013-09-05 06:16:00,
2013-09-04 23:21:00,64.6,58.6,30.47,SW,221,0.0,0.0,81,0.08,,,0.08,WeatherCatV1.21B27,2013-09-05 06:21:00,
2013-09-04 23:26:00,64.4,58.4,30.47,SSW,202,0.0,0.0,81,0.08,,,0.08,WeatherCatV1.21B27,2013-09-05 06:26:00,
2013-09-04 23:31:00,64.0,58.1,30.47,SW,217,0.0,0.0,81,0.08,,,0.08,WeatherCatV1.21B27,2013-09-05 06:31:00,
2013-09-04 23:36:00,63.9,57.9,30.47,SW,217,0.0,0.0,81,0.08,,,0.08,WeatherCatV1.21B27,2013-09-05 06:36:00,
2013-09-04 23:41:00,63.7,57.7,30.47,South,187,0.0,0.0,81,0.08,,,0.08,WeatherCatV1.21B27,2013-09-05 06:41:00,
2013-09-04 23:46:00,63.7,58.1,30.47,SSE,163,0.0,0.0,82,0.08,,,0.08,WeatherCatV1.21B27,2013-09-05 06:46:00,
2013-09-04 23:51:00,63.7,58.1,30.47,West,259,0.0,0.0,82,0.08,,,0.08,WeatherCatV1.21B27,2013-09-05 06:51:00,
2013-09-04 23:56:00,63.7,58.1,30.47,West,259,0.0,0.0,82,0.08,,,0.08,WeatherCatV1.21B27,2013-09-05 06:56:00,